Showing default

YAOGAN 29, 41038

Orbit data source: Space-Track

YAOGAN 29, 41038 is a payload satellite owned by PLA GAD (CN) in SSO that was launched on Thu, 26 Nov 2015 UTC via a CHANG ZHENG 4C launch vehicle from the Taiyaun Space Center, China (TSC). Payload-class satellites include a variety of spacecraft equipped with specific instruments for various scientific and technological missions. These include communications satellites like Starlink; space stations such as the ISS; scientific satellites like the Hubble; Earth observation satellites from companies like Planet Labs, Umbra, and HawkEye 360; GPS; miniature CubeSats for education and research; and military/defense satellites.

Loading next visibility...
Identifier
41038, 2015-069A
Orbit
SSO
Country
Flag of CNCN / PRC
Related business
Manufacturer
SAST
Mission
Operational Defense Radar Imaging
Bus & Motor
JB-9, Unknown motor
Mass
1,040 kg wet, 1,040 kg dry
Launch date (UTC)
2015-11-26 (11 years ago)
Launch vehicle
CHANG ZHENG 4C
Launch site
Taiyaun Space Center, China (TSC)
Object type
Payload
Rocket body
Debris
Shape & HBR
Box + 2 Pan, 2.5 m
Radar Cross Section
4.795 m², Large (>1 m²)

Expand to show TLE details & history
Last TLE update: 1 day ago

TLE from 1 day ago
0 YAOGAN 29
1 41038U 15069A   26172.49576502  .00000544  00000-0  73435-4 0  9992
2 41038  98.0024 201.1358 0002382  47.5165 312.6249 14.83088194571268
Epoch: 2026-06-21T11:53Z
TLE epoch observation values (Epoch: 2026-06-21T11:53:54.097Z)
Latitude
-0.00007°
Longitude
112.9652°
Altitude
621.487 km
Speed
7.549 km/s
True Right ascension
13h 24m 32s
True Declination
0° 00' 00"
Sunlit
Object was in daylight at epoch
Visualization orbit readout
Latitude
Unknown
Longitude
Unknown
Altitude
Unknown
Speed
Unknown
Apparent Right ascension
Unknown
Apparent Declination
Unknown
Sunlit
N/A
Visualization observer readout
Local Sidereal Time
23:21:03
Azimuth
Unknown
Elevation
Unknown
Doppler factor
Unknown
Orbital elements
Apogee altitude
618.301 km
Perigee altitude
614.968 km
Semi-major axis
6,994.771 km
Eccentricity
0.00024
Inclination
98.0024°
RAAN
201.1358°
Arg. of periapsis
47.5165°
True anomaly
312.60481°
Mean anomaly
312.6249°
Eccentric anomaly
312.61486°
Mean motion
3.71008 °/min
Orbital period
97.03 mins
BSTAR
0.000073435
Loading maneuver chart data...
Computing Atmospheric mass density...
Loading historical data...
Loading historical data...
Loading historical data...
Loading historical data...
Loading historical data...
Loading historical data...
Loading historical data...
Other satellites on launch #69 in the year 2015 (2015-11-26 UTC)

Documentation

Showing up to 5 results
|